Regional Weather Roundup
Issued by NWS

Home | Current Version | Previous Version | Text Only | Print | Product List | Glossary Off
Versions: 1 2 3 4 5 6 7 8 9 10 11 12 13 14 15 16 17 18 19 20 21 22 23 24 25 26 27 28 29 30 31 32 33 34 35 36 37 38 39 40 41 42 43 44 45 46 47 48 49 50

000
ASUS43 KMKX 252000
RWRWI

WISCONSIN REGIONAL WEATHER ROUNDUP
NATIONAL WEATHER SERVICE MILWAUKEE/SULLIVAN WI
300 PM CDT MON JUL 25 2016

NOTE: "FAIR" INDICATES FEW OR NO CLOUDS BELOW 12,000 FEET WITH NO
SIGNIFICANT WEATHER AND/OR OBSTRUCTIONS TO VISIBILITY.

WIZ001-002-006>008-014>016-023>028-252100-
NORTHWEST WISCONSIN

CITY           SKY/WX    TMP DP  RH WIND       PRES   REMARKS
SUPERIOR ARPT  SUNNY     83  62  47 W12G21    29.99S HX  84
ASHLAND        SUNNY     83  60  45 W13       30.01S HX  83
HAYWARD        MOSUNNY   81  58  45 SW7       30.03S HX  81
SIREN          NOT AVBL
CUMBERLAND     PTSUNNY   79  59  50 W9        30.05F HX  80
RICE LAKE      MOSUNNY   79  61  54 W5        30.06S HX  80
CHETEK         MOSUNNY   81  63  53 W5        30.04F HX  82
LADYSMITH      MOSUNNY   81  60  49 W7G17     30.06S HX  81
EAU CLAIRE     NOT AVBL
MENOMONIE      MOSUNNY   85  60  42 NW8       30.05S HX  84
NEW RICHMOND   SUNNY     83  59  44 W9        30.05F HX  83
OSCEOLA        SUNNY     83  61  47 NW8       30.07S HX  83
$$

WIZ003>005-009-010-017-018-252100-
NORTH CENTRAL WISCONSIN

CITY           SKY/WX    TMP DP  RH WIND       PRES   REMARKS
MANITOWISH WTR PTSUNNY   79  59  50 NW13      30.02F HX  80
ARBOR VITAE    MOSUNNY   79  59  50 NW9G17    30.03S HX  80
WOODRUFF       MOSUNNY   79  59  50 NW9G17    30.03S HX  80
RHINELANDER    MOSUNNY   82  57  42 W10       30.03F HX  82
EAGLE RIVER    MOSUNNY   78  55  44 NW13      30.01F
LAND O LAKES   MOSUNNY   78  54  43 W7G17     30.03S
PHILLIPS       PTSUNNY   78  60  53 W8        30.03S
TOMAHAWK       PTSUNNY   79  58  48 W9        30.04S HX  80
MEDFORD        MOSUNNY   78  61  54 NW8G23    30.04F HX  80
MERRILL        PTSUNNY   80  60  51 NW10G18   30.03S HX  81
$$

WIZ029-030-035-036-043>047-252100-
CENTRAL WISCONSIN

CITY           SKY/WX    TMP DP  RH WIND       PRES   REMARKS
WAUSAU         PTSUNNY   81  58  45 NW10      30.00S HX  81
MOSINEE        MOSUNNY   81  57  44 NW13      30.03F HX  81
MARSHFIELD     MOSUNNY   83  60  45 NW15      30.03F HX  83
STEVENS POINT  MOSUNNY   80  59  49 W10G17    30.02S HX  80
WAUPACA        SUNNY     85  58  39 NW12      29.99F HX  85
WAUTOMA        NOT AVBL
WISC RAPIDS    SUNNY     84  58  40 NW17      30.02F HX  83
CAMP DOUGLAS   NOT AVBL
$$

WIZ011>013-019>022-031-037>040-048>050-252100-
NORTHEAST WISCONSIN

CITY           SKY/WX    TMP DP  RH WIND       PRES   REMARKS
ANTIGO         MOSUNNY   78  60  52 NW10G17   30.02F HX  80
SHAWANO        SUNNY     84  59  41 NW13G20   29.97F HX  84
OCONTO         SUNNY     84  60  44 NW8       29.94F HX  84
STURGEON BAY   SUNNY     83  61  47 NW12      29.96S HX  83
GREEN BAY      MOSUNNY   82  67  60 NW6G18    29.97S HX  84
MANITOWOC      NOT AVBL
APPLETON       PTSUNNY   82  55  39 NW12G17   29.98S HX  82
CLINTONVILLE   SUNNY     82  54  36 NW17      29.98S HX  81
OSHKOSH        MOSUNNY   84  62  47 NW10G18   29.99S HX  85
$$

WIZ032>034-041-042-053>061-252100-
SOUTHWEST WISCONSIN

CITY           SKY/WX    TMP DP  RH WIND       PRES   REMARKS
LA CROSSE      SUNNY     85  63  47 NW10      30.02F HX  86
SPARTA         MOSUNNY   82  62  49 NW9       30.04F HX  83
VIROQUA        PTSUNNY   80  62  54 NW9       30.06F HX  81
BOSCOBEL       MOSUNNY   84  61  45 NW8       30.03S HX  84
PRAIRIE DU CHI MOSUNNY   83  58  42 NW7G17    30.04S HX  82
PLATTEVILLE    MOSUNNY   82  63  53 W12       30.05F HX  83
$$

WIZ056-057-062-063-064-067-068-252100-
SOUTH CENTRAL WISCONSIN

CITY           SKY/WX    TMP DP  RH WIND       PRES   REMARKS
REEDSBURG      PTSUNNY   83  65  54 NW8       30.03S HX  84
BARABOO/DELLS  MOSUNNY   82  60  48 NW7       30.03S HX  82
LONE ROCK      NOT AVBL
MINERAL POINT  MOSUNNY   82  61  47 NW8       30.05F HX  83
MADISON        PTSUNNY   84  63  49 N10       30.02S HX  85
MIDDLETON      MOSUNNY   84  63  49 NW8       30.03S HX  85
WATERTOWN      PTSUNNY   82  65  56 NW8       30.01S HX  84
MONROE         SUNNY     82  63  51 NW7       30.03F HX  83
JANESVILLE     MOSUNNY   86  63  45 NW12      30.01S HX  87
$$

WIZ051-052-058>065-066-070>072-252100-
SOUTHEAST WISCONSIN

CITY           SKY/WX    TMP DP  RH WIND       PRES   REMARKS
MILWAUKEE      MOSUNNY   87  64  46 VRB3      29.98S HX  88
WAUKESHA       MOSUNNY   81  63  54 NW9       30.02R HX  82
MILWAUKEE/TIMM MOSUNNY   84  57  39 W12       30.00S HX  83
RACINE         SUNNY     83  63  50 E8        30.01S HX  84
BURLINGTON     SUNNY     84  63  48 W9        30.00S HX  85
KENOSHA        MOSUNNY   86  66  51 NE6       30.00S HX  88
FOND DU LAC    MOSUNNY   85  63  47 NW10G20   29.99S HX  86
SHEBOYGAN      SUNNY     83  63  50 W9        29.98F HX  84
WEST BEND      MOSUNNY   82  59  44 W9G16     30.00S HX  82
JUNEAU         MOSUNNY   80  63  56 NW6       30.03R HX  81
$$

LSZ147-162-252100-
LAKE SUPERIOR

STATION/POSITION TIME  TEMP    WIND        PRES    WAVE
                       AIR SEA DIR/SP/G            HT/PER
                 (UTC) (F)     (DEG/KT/KT) (MB)    (FT/S)
W MID LAKE BUOY  1750   64 60  240/ 14/ 16 1014.0F   2/ 4
DEVILS ISLAND    1900   70     230/ 13/ 16 1014.8F
SAXON HARBOR     1900   78      50/  2/  3 1015.9S
$$

LMZ867-665-643>646-252100-
LAKE MICHIGAN

STATION/POSITION TIME  TEMP    WIND        PRES    WAVE
                       AIR SEA DIR/SP/G            HT/PER
                 (UTC) (F)     (DEG/KT/KT) (MB)    (FT/S)
CHAMBERS ISLAND  1900   82     310/  5/  9 1013.9S
S GREEN BAY BUOY 1930   77 75  310/  8/  8   N/A
N MID LAKE BUOY  1750   71 69  250/  8/ 10 1012.9R   1/ 3
NORTHPORT PIER   1900   79     310/ 10/ 14 1013.5S
SISTER BAY       1921   82     340/  9/ 10   N/A
ALGOMA LAKESHORE 1813          300/  8/ 13   N/A
KEWAUNEE LAKESHO 1900   81     310/  5/ 13 1013.9F
SHEBOYGAN LAKESH 1900   80     300/ 11/ 14 1015.1F
PORT WASHINGTON  1940   87     300/  9/ 13 1015.9S
ATWATER BUOY     1900   72 57   60/  4/  6 1016.9F
MILWAUKEE LAKESH 1910   74     110/  6/  8   N/A
S MID LAKE BUOY  1750   73 73  280/  2/  4 1015.4R   1/ 4
KENOSHA   LAKESH 1900   74     160/  9/ 10 1015.6R
$$

TC  - TEMPERATURE IN CELSIUS
VSB - VISIBILITY IN STATUTE MILES
WCI - WIND CHILL INDEX
HX  - HEAT INDEX





USA.gov is the U.S. government's official web portal to all federal, state and local government web resources and services.